Location: Baller�as
(41.9020°N, 0.1554°W)
Time: 12:21:56
(UTC+00:00)

Cosmos 1980 Rocket - Pass Details

Date: 10 August 2020
Orbit: 829 x 849 km, 71.0° (Epoch: 22 September)

Event Time Altitude Azimuth Distance (km) Brightness Sun altitude
Rises 21:49:21 0° 328° (NNW) 3,414 6.7 -24.8°
Reaches altitude 10° 21:51:58 10° 321° (NW) 2,472 5.7 -25.1°
Maximum altitude 21:57:08 38° 255° (WSW) 1,267 3.2 -25.6°
Enters shadow 21:58:39 32° 221° (SW) 1,408 3.2 -25.8°
